Location: Andrews Lake
(37.7278°N, 107.7089°W)
Time: 23:58:02
(UTC+00:00)

Daily predictions for brighter satellites

Satellite Brightness Start Highest point End
(mag) Time Altitude Azimuth Time Altitude Azimuth Time Altitude Azimuth
STARLINK-34 3.9 12:04:47 61° SE 12:04:47 61° SE 12:08:09 10° SE
Cosmos 1484 Rocket 3.2 12:00:59 10° NNE 12:04:54 63° E 12:08:44 10° S
PSLV R/B 4.2 12:02:31 10° NNE 12:06:36 65° E 12:10:41 10° S
STARLINK-81 3.7 12:07:42 70° ESE 12:07:42 70° ESE 12:11:17 10° SE
STARLINK-24 3.7 12:09:34 68° SSE 12:09:34 68° SSE 12:13:07 10° SE
SKYMED 2 4.4 12:05:03 10° SSE 12:09:12 48° ENE 12:12:33 15° N
STARLINK-77 3.6 12:10:53 75° SE 12:10:53 75° SE 12:14:35 10° SE
STARLINK-25 3.5 12:12:27 77° SSE 12:12:27 77° SSE 12:16:14 10° SE
STARLINK-71 3.6 12:14:21 69° S 12:14:21 69° S 12:18:02 10° SE
Cosmos 2034 Rocket 3.9 12:08:06 10° S 12:14:21 76° W 12:20:44 10° N
STARLINK-79 3.4 12:15:39 77° SSW 12:15:39 77° SSW 12:19:31 10° SE
STARLINK-78 3.4 12:17:16 75° SSW 12:17:16 75° SSW 12:21:11 10° SE
SJ-12 4.3 12:14:30 10° NNE 12:18:36 65° ESE 12:22:39 10° S
STARLINK-57 3.5 12:18:59 69° SW 12:18:59 69° SW 12:22:54 10° SE
STARLINK-49 3.4 12:20:25 70° SW 12:20:28 70° SW 12:24:27 10° SE
STARLINK-27 3.4 12:22:01 67° WSW 12:22:07 68° SW 12:26:06 10° SE
Meteor 2-11 Rocket 4.3 12:16:09 10° SSW 12:22:11 65° W 12:28:15 10° N
STARLINK-74 3.4 12:23:36 64° WSW 12:23:46 65° SW 12:27:45 10° SE
Cosmos 1812 3.7 12:26:39 33° SSW 12:26:39 33° SSW 12:29:01 10° SSW
STARLINK-39 3.5 12:25:12 61° WSW 12:25:25 63° SW 12:29:24 10° SE
Cosmos 1624 Rocket 4.0 12:21:42 10° SSW 12:26:55 59° WNW 12:32:12 10° N
STARLINK 3.5 12:26:49 58° WSW 12:27:05 60° SW 12:31:02 10° SE
STARLINK-42 3.6 12:28:39 53° WSW 12:28:55 54° SW 12:32:51 10° SSE
CZ-4B DEB 4.3 12:23:24 10° NNE 12:28:56 79° ESE 12:34:28 10° S
USA 234 4.1 12:24:00 10° NNE 12:29:24 28° NNW 12:30:44 26° NW
STARLINK-21 3.6 12:30:06 52° WSW 12:30:29 55° SW 12:34:24 10° SSE
Lacrosse 5 2.3 12:30:27 38° W 12:31:18 42° SW 12:36:02 10° SSE
STARLINK-26 4.2 12:32:18 33° SW 12:32:18 33° SW 12:35:11 10° SSE
Cosmos 2056 Rocket 3.5 12:27:00 10° SSW 12:31:59 54° WNW 12:37:00 10° N
STARLINK-45 3.8 12:31:56 45° WSW 12:32:15 46° SW 12:36:06 10° SSE
STARLINK-75 4.0 12:33:26 42° WSW 12:33:46 43° SW 12:37:34 10° SSE
Cosmos 1933 Rocket 3.5 12:30:15 10° SSW 12:34:29 55° W 12:38:46 10° N
STARLINK-76 3.8 12:34:51 45° WSW 12:35:25 49° SW 12:39:17 10° SSE
STARLINK 3.9 12:36:23 43° WSW 12:37:00 47° SW 12:40:51 10° SSE
Cosmos 2263 Rocket 2.5 12:31:48 10° S 12:37:20 68° ESE 12:42:53 10° NNE
Aureole 1 Rocket 4.5 12:36:36 31° WNW 12:38:08 36° WSW 12:44:22 10° SSW
STARLINK-32 3.9 12:37:59 41° WSW 12:38:39 45° SW 12:42:29 10° SSE
STARLINK-41 4.0 12:38:41 40° W 12:39:27 45° SW 12:43:21 10° SSE
Cosmos 1190 Rocket 3.9 12:36:07 18° NNW 12:39:58 74° WSW 12:45:10 10° S
STARLINK-40 4.0 12:39:34 39° WSW 12:40:17 43° SW 12:44:06 10° SSE
STARLINK-37 4.1 12:39:49 37° WSW 12:40:32 41° SW 12:44:22 10° SSE
Okean 1-7 3.7 12:36:17 10° N 12:40:38 56° E 12:44:56 10° SSE
STARLINK-64 4.1 12:40:10 38° W 12:41:01 43° SW 12:44:55 10° SSE
Cosmos 676 Rocket 4.4 12:35:54 10° NNW 12:41:09 66° ENE 12:46:23 10° SSE
STARLINK-44 4.1 12:41:13 37° W 12:42:00 42° SW 12:45:47 10° SSE
Cosmos 2227 4.1 12:38:44 10° SSW 12:44:27 77° WNW 12:50:15 10° NNE
Geosat 4.0 12:39:43 10° SSE 12:44:40 60° WSW 12:48:09 20° NW
ALOS 2.1 12:40:18 10° N 12:44:59 78° WNW 12:49:38 10° SSW
STARLINK-36 4.2 12:44:21 34° W 12:45:14 39° SW 12:48:59 10° SSE
Cosmos 1092 Rocket 3.9 12:39:51 10° N 12:46:03 89° W 12:52:11 10° S
CZ-4C R/B 3.0 12:40:06 17° NW 12:46:19 78° WSW 12:54:40 10° SSE
STARLINK-35 4.3 12:49:07 29° W 12:50:11 34° SW 12:53:50 10° SSE
STARLINK 4.2 12:49:30 30° W 12:50:46 39° SW 12:54:35 10° SSE
STARLINK-51 4.4 12:50:43 28° W 12:51:49 33° SW 12:55:26 10° SSE
Cosmos 1954 Rocket 4.1 12:47:17 10° NNW 12:52:34 80° ENE 12:57:52 10° SSE
STARLINK-30 4.5 12:52:20 27° W 12:53:30 32° SW 12:57:05 10° SSE
Cosmos 1420 Rocket 3.9 12:48:24 10° SSW 12:53:37 77° WNW 12:58:49 10° NNE
H-2A R/B 3.4 12:53:31 11° SW 12:56:18 28° SSE 13:05:25 10° ESE
Cosmos 1461 3.4 12:53:07 13° NNW 12:56:47 61° ENE 13:01:08 10° SE
COSMO-SKYMED 1 2.8 12:53:00 10° S 12:57:10 45° W 13:01:03 12° NNW
Meteor 1-25 Rocket 4.1 12:53:45 10° SSW 12:59:16 69° W 13:04:55 10° N
Timation 1 Rocket 4.4 12:54:28 10° SSW 13:00:26 87° ESE 13:06:26 10° NNE
Orbus 7S? 3.8 12:58:03 10° SSW 13:01:18 43° SE 13:03:42 10° NE
CZ-4B R/B 3.2 12:57:27 10° NNE 13:03:03 81° WNW 13:08:42 10° SSW
Okean O Rocket 1.5 12:59:41 10° N 13:04:02 66° WNW 13:08:23 10° SSW
Helios 1A Rocket 2.8 13:02:54 10° N 13:06:54 62° WNW 13:10:51 10° SSW
SL-23 DEB 3.2 13:04:00 10° WSW 13:07:19 70° NW 13:10:31 10° NE
Okean 1 3.4 13:03:48 10° N 13:07:46 78° E 13:11:44 10° S
PAYLOAD B 4.3 13:03:36 10° N 13:08:56 52° WNW 13:14:16 10° SW
FENGYUN 3A 3.8 13:03:59 10° N 13:09:12 51° WNW 13:14:23 10° SSW
Cosmos 2242 Rocket 4.4 13:06:02 11° NNW 13:09:43 30° W 13:13:38 10° SSW
Cosmos 2084 Rocket 3.5 13:05:48 13° NNW 13:09:46 90° NE 13:14:10 10° SSE
USA 116 4.1 13:06:07 10° S 13:10:06 55° W 13:14:41 10° NNW
SWAS 4.4 13:08:55 10° SSW 13:13:12 79° WNW 13:17:32 10° NNE
Cosmos 1703 Rocket 3.9 13:11:52 10° NNW 13:16:07 45° W 13:20:18 10° SSW
Cosmos 1452 Rocket 3.5 13:13:34 10° SSW 13:18:45 58° WNW 13:23:58 10° N
Cosmos 1943 3.2 13:14:55 10° NNW 13:20:34 85° ENE 13:26:11 10° SSE
Cosmos 1733 Rocket 4.1 13:18:43 10° SSE 13:22:51 48° E 13:27:01 10° NNE
Meteor 1-19 Rocket 4.3 13:17:25 10° N 13:22:56 82° E 13:28:34 10° S
NOAA 6 4.2 13:19:27 10° N 13:24:21 47° WNW 13:29:14 10° SW
FALCON 9 DEB 4.4 13:23:17 10° NNW 13:25:05 19° NE 13:26:52 10° E
Radarsat Rocket 4.2 13:19:32 10° NNE 13:25:45 81° WNW 13:32:42 10° SSW
Cosmos 1850 Rocket 4.4 13:24:08 10° NNW 13:29:29 69° ENE 13:34:47 10° SSE
Cosmos 1869 Rocket 4.0 13:25:34 10° SSW 13:29:34 37° WNW 13:33:36 10° N
Cosmos 1602 4.2 13:27:18 10° SSW 13:30:52 37° W 13:34:27 10° N
SL-16 R/B 3.9 13:29:37 10° WNW 13:32:15 14° W 13:34:59 10° SW
Cosmos 1500 4.2 13:29:33 10° S 13:33:17 52° E 13:37:01 10° NNE
Cosmos 1340 2.9 13:31:31 10° SSW 13:35:08 45° WNW 13:38:46 10° N
Cosmos 1515 4.0 13:32:43 10° N 13:36:32 71° E 13:40:19 10° SSE
Cosmos 1603 4.0 13:33:34 10° NNW 13:39:04 49° WSW 13:44:31 10° S
BREEZE-M DEB (TANK) 2.5 13:37:14 10° NW 13:39:10 38° NE 13:42:39 10° ESE
Meteor 2-4 Rocket 4.0 13:34:44 10° N 13:40:16 73° E 13:45:38 10° SSE
